Weather History for Morristown, NJ

Change the Weather History Date:

Saturday, February 8, 2014

  Actual Average Record
Temperature  
Mean Temperature 19 °F -  
Max Temperature 28 °F 36 °F 60 °F (1933)
Min Temperature 10 °F 16 °F -5 °F (1963)
Degree Days  
Heating Degree Days 46    
Moisture  
Dew Point 7 °F    
Average Humidity 55    
Maximum Humidity 85    
Minimum Humidity 37    
Precipitation  
Precipitation 0.00 in - - ()
Sea Level Pressure  
Sea Level Pressure 30.26 in    
Wind  
Wind Speed 3 mph (West)    
Max Wind Speed 9 mph    
Max Gust Speed -    
Visibility 11 miles    
Events      
Averages and records for this station are not official NWS values.
T = Trace of Precipitation, MM = Missing Value Source: NWS Daily Summary

Daily Weather History Graph

Daily Weather History Graph

Search for Another Location

Airport:

Trip Planner

Search our weather history database for the weather conditions in past years. The results will help you decide how hot, cold, wet, or windy it might be!

Date:

Astronomy

Feb. 08, 2014 Rise Set
Actual Time 7:00 AM EST 5:23 PM EST
Civil Twilight 6:31 AM EST 5:52 PM EST
Nautical Twilight 5:59 AM EST 6:24 PM EST
Astronomical Twilight 5:27 AM EST 6:56 PM EST
Moon 12:15 PM EST (2/8) 2:11 AM EST (2/8)
Length of Visible Light 11h 20m
Length of Day
10h 23m
Waxing Gibbous, 68% of the Moon is Illuminated
Feb 8
Waxing Gibbous
Feb 14
Full
Feb 22
Last Quarter
Mar 1
New
Mar 8
First Quarter

Hourly Weather History & Observations

Time (EST) Temp. Windchill Dew Point Humidity Pressure Visibility Wind Dir Wind Speed Gust Speed Precip Events Conditions
12:15 AM 26.6 °F 21.2 °F 6.8 °F 43% 30.30 in 10.0 mi West 4.6 mph - N/A   Clear
12:35 AM 24.8 °F 19.1 °F 6.8 °F 46% 30.30 in 10.0 mi West 4.6 mph - N/A   Clear
12:55 AM 24.8 °F 16.9 °F 6.8 °F 46% 30.29 in 10.0 mi West 6.9 mph - N/A   Clear
1:15 AM 24.8 °F 20.5 °F 6.8 °F 46% 30.30 in 10.0 mi WNW 3.5 mph - N/A   Clear
1:35 AM 23.0 °F 18.4 °F 5.0 °F 46% 30.30 in 10.0 mi West 3.5 mph - N/A   Clear
1:55 AM 23.0 °F 15.8 °F 5.0 °F 46% 30.30 in 10.0 mi WSW 5.8 mph - N/A   Clear
2:15 AM 23.0 °F 18.4 °F 3.2 °F 43% 30.30 in 10.0 mi West 3.5 mph - N/A   Clear
2:35 AM 23.0 °F 17.0 °F 3.2 °F 43% 30.31 in 10.0 mi West 4.6 mph - N/A   Clear
2:55 AM 21.2 °F - 3.2 °F 46% 30.31 in 10.0 mi Calm Calm - N/A   Clear
3:15 AM 21.2 °F 16.4 °F 3.2 °F 46% 30.31 in 10.0 mi West 3.5 mph - N/A   Clear
3:35 AM 21.2 °F 16.4 °F 1.4 °F 42% 30.31 in 10.0 mi WNW 3.5 mph - N/A   Clear
3:55 AM 21.2 °F 14.9 °F 1.4 °F 42% 30.31 in 10.0 mi NW 4.6 mph - N/A   Clear
4:15 AM 19.4 °F - 3.2 °F 49% 30.32 in 10.0 mi Calm Calm - N/A   Clear
4:35 AM 15.8 °F - 6.8 °F 68% 30.33 in 10.0 mi Calm Calm - N/A   Clear
4:55 AM 15.8 °F - 6.8 °F 68% 30.33 in 10.0 mi Calm Calm - N/A   Clear
5:15 AM 14.0 °F - 5.0 °F 67% 30.33 in 10.0 mi Calm Calm - N/A   Clear
5:35 AM 14.0 °F - 8.6 °F 79% 30.33 in 10.0 mi Calm Calm - N/A   Clear
6:45 AM 10.4 °F - 5.0 °F 79% 30.33 in 10.0 mi Calm Calm - N/A   Scattered Clouds
7:45 AM 12.2 °F 6.1 °F 8.6 °F 85% 30.33 in 10.0 mi North 3.5 mph - N/A   Mostly Cloudy
8:45 AM 17.6 °F - 8.6 °F 68% 30.34 in 10.0 mi Calm Calm - N/A   Mostly Cloudy
9:45 AM 21.2 °F 16.4 °F -0.4 °F 39% 30.34 in 10.0 mi NNW 3.5 mph - N/A   Mostly Cloudy
10:45 AM 21.2 °F - -0.4 °F 39% 30.32 in 10.0 mi Calm Calm - N/A   Mostly Cloudy
11:45 AM 17.6 °F - -0.4 °F 45% 30.29 in 10.0 mi Calm Calm - N/A   Mostly Cloudy
12:45 PM 26.6 °F 20.0 °F 3.2 °F 37% 30.27 in 20.0 mi NW 5.8 mph - N/A   Overcast
1:45 PM 26.6 °F 19.1 °F 3.2 °F 37% 30.23 in 10.0 mi NW 6.9 mph - N/A   Overcast
2:45 PM 28.4 °F 19.7 °F 10.4 °F 47% 30.24 in 20.0 mi SSW 9.2 mph - N/A   Overcast
3:45 PM 26.6 °F 19.1 °F 10.4 °F 51% 30.23 in 10.0 mi WSW 6.9 mph - N/A   Overcast
4:45 PM 26.6 °F 20.0 °F 10.4 °F 51% 30.22 in 20.0 mi WSW 5.8 mph - N/A   Overcast
5:45 PM 24.8 °F 20.5 °F 10.4 °F 54% 30.20 in 10.0 mi SW 3.5 mph - N/A   Mostly Cloudy
6:45 PM 24.8 °F 16.1 °F 10.4 °F 54% 30.20 in 10.0 mi West 8.1 mph - N/A   Mostly Cloudy
7:45 PM 24.8 °F 20.5 °F 10.4 °F 54% 30.19 in 10.0 mi West 3.5 mph - N/A   Mostly Cloudy
8:45 PM 24.8 °F - 10.4 °F 54% 30.17 in 7.0 mi Calm Calm - N/A   Overcast
9:45 PM 23.0 °F - 8.6 °F 54% 30.17 in 10.0 mi Calm Calm - N/A   Overcast
9:55 PM 24.8 °F 20.5 °F 8.6 °F 50% 30.17 in 10.0 mi West 3.5 mph - N/A   Clear
10:15 PM 23.0 °F - 10.4 °F 59% 30.16 in 10.0 mi Calm Calm - N/A   Clear
10:35 PM 21.2 °F - 12.2 °F 68% 30.16 in 10.0 mi Calm Calm - N/A   Clear
10:55 PM 21.2 °F - 14.0 °F 74% 30.16 in 10.0 mi Calm Calm - N/A   Clear
11:15 PM 19.4 °F 14.3 °F 10.4 °F 68% 30.16 in 10.0 mi WSW 3.5 mph - N/A   Clear
11:35 PM 17.6 °F - 10.4 °F 73% 30.16 in 10.0 mi Calm Calm - N/A   Clear
11:55 PM 17.6 °F - 12.2 °F 79% 30.16 in 10.0 mi Calm Calm - N/A   Clear